User: anonymous   Login
Location: Peebles
(55.6412°N, 3.1714°W)
Time: 19:20:37
(UTC+01:00)
Language:

Vanguard 3 - Orbit

View from above orbital plane
View from above orbital plane
View from above satellite
View from above satellite

Ground track
Ground track

The orbit data is extracted from the following two-line orbital elements,

1    20U 59007A   22275.17248043  .00000556  00000-0  23151-3 0  9991
2    20  33.3427  80.1455 1664168  26.8435 340.9297 11.56272696327471
Epoch (UTC): 02 October 2022 04:08:22
Eccentricity: 0.1664168
inclination: 33.3427°
perigee height: 508 km
apogee height: 3257 km
right ascension of ascending node: 80.1455°
argument of perigee: 26.8435°
revolutions per day: 11.56272696
mean anomaly at epoch: 340.9297°
orbit number at epoch: 32747

The dashed part of the orbit path shows where the satellite is in the earth's shadow,  

DLR